Tracking 30995 objects as of 7-Jul-2025
HD Live streaming from Space Station
objects crossing your sky now

SCOUT G-1 DEB

Track SCOUT G-1 DEB now!
10-day predictions


NORAD ID: 44571
Int'l Code: 1985-066K
Perigee: 991.5 km
Apogee: 1,226.0 km
Inclination: 90.2 °
Period: 107.3 minutes
Semi major axis: 7479 km
RCS: Unknown
Launch date: August 3, 1985
Source: United States (US)
Launch site: AIR FORCE WESTERN TEST RANGE (AFWTR)

Note: This is SATELLITE DEBRIS
Your satellite tracking list
Your tracking list is empty




NASA's NSSDC Master Catalog

Two Line Element Set (TLE):
1 44571U 85066K   25185.96387679  .00001014  00000-0  16616-2 0  9990
2 44571  90.1708  83.0878 0156798 111.4438 250.3513 13.42065636612037
Source of the keplerian elements: AFSPC